Simultaneous Nadir Overpasses (SNOs) Predictions

Prediction of SNOs between METOP-A and NOAA-19 Satellite Orbit:

Table of predicted SNOs for the next 14.0 days since TLE Epoch: 3/29/2019
Index Date (METOP-A) Time (METOP-A) Lat,Lon (METOP-A) SZA (METOP-A ) Date (NOAA-19) Time (NOAA-19) Lat,Lon (NOAA-19) SZA (NOAA-19 ) Distance(km) Time Diff (sec)
1 03/31/2019 15:29:53 79.48, -41.16 75.39 03/31/2019 15:28:46 79.51, -41.22 75.40 3.00 67
2 03/31/2019 16:20:34 -79.49, 126.21 104.62 03/31/2019 16:19:43 -79.48, 126.28 104.63 1.46 51
3 03/31/2019 17:11:14 79.50, -66.40 75.38 03/31/2019 17:10:46 79.48, -66.46 75.36 2.07 28
4 03/31/2019 18:01:56 -79.47, 100.70 104.68 03/31/2019 18:01:44 -79.49, 100.75 104.66 2.30 12
5 03/31/2019 18:52:36 79.47, -91.91 75.32 03/31/2019 18:52:47 79.48, -91.99 75.33 1.91 11
6 03/31/2019 19:43:17 -79.48, 75.46 104.69 03/31/2019 19:43:44 -79.46, 75.50 104.70 2.34 27
7 03/31/2019 20:33:57 79.49,-117.15 75.31 03/31/2019 20:34:47 79.46,-117.23 75.29 3.70 50
8 03/31/2019 21:24:39 -79.46, 49.96 104.74 03/31/2019 21:25:45 -79.46, 49.97 104.73 0.60 66
9 04/11/2019 13:19:59 79.52, -8.54 71.33 04/11/2019 13:19:02 79.52, -8.52 71.33 0.54 57
10 04/11/2019 14:10:41 -79.51, 158.67 108.70 04/11/2019 14:09:58 -79.53, 158.70 108.69 2.51 43
11 04/11/2019 15:01:21 79.50, -34.05 71.28 04/11/2019 15:01:03 79.53, -34.05 71.31 3.00 18
12 04/11/2019 15:52:02 -79.52, 133.43 108.71 04/11/2019 15:51:58 -79.50, 133.45 108.73 1.89 4
13 04/11/2019 16:42:42 79.51, -59.30 71.27 04/11/2019 16:43:03 79.50, -59.29 71.26 1.29 21
14 04/11/2019 17:33:24 -79.50, 107.92 108.77 04/11/2019 17:33:59 -79.50, 107.92 108.75 0.89 35
15 04/11/2019 18:24:04 79.49, -84.81 71.22 04/11/2019 18:25:04 79.50, -84.82 71.24 1.45 60




NCC Satellite Simultaneous Nadir Overpasses (SNOs) Prediction Service
